Overview Statistics Trail Chart Weather Telemetry Raw packets
 

This is the latest recevied weather packets stored in our database for station/object AI5BL. If no packets are shown the sender has not sent any weather packets the latest 10 day(s).

<< 82 83 84 85 86 87 88 >>
Time Temp. Humidity Pressure Rain* Wind** Luminosity Snow
1788051571 27.22° C 83% 1018.3 hPa 0 mm - 0 W/m² -
1788051269 27.22° C 83% 1018.3 hPa 0 mm - 0 W/m² -
1788050968 27.22° C 82% 1018.3 hPa 0 mm - 0 W/m² -
1788050664 27.22° C 82% 1018.4 hPa 0 mm - 0 W/m² -
1788050363 27.78° C 81% 1018.6 hPa 0 mm - 0 W/m² -
1788050062 27.78° C 82% 1018.3 hPa 0 mm - 0 W/m² -
1788049760 27.78° C 80% 1018.3 hPa 0 mm - 1 W/m² -
1788049455 27.78° C 79% 1018.3 hPa 0 mm - 2 W/m² -
1788049151 28.33° C 80% 1018.2 hPa 0 mm - 4 W/m² -
1788048846 28.33° C 77% 1018.1 hPa 0 mm - 5 W/m² -
1788048541 28.89° C 76% 1018.1 hPa 0 mm - 7 W/m² -
1788048239 28.89° C 75% 1018 hPa 0 mm - 9 W/m² -
1788047936 29.44° C 74% 1018.1 hPa 0 mm - 10 W/m² -
1788047631 29.44° C 72% 1018.2 hPa 0 mm - 13 W/m² -
1788047330 30° C 71% 1018.1 hPa 0 mm - 14 W/m² -
1788047026 30° C 70% 1018 hPa 0 mm - 15 W/m² -
1788046726 30° C 70% 1018 hPa 0 mm - 22 W/m² -
1788046425 30° C 70% 1018 hPa 0 mm - 26 W/m² -
1788046123 30.56° C 68% 1017.7 hPa 0 mm - 20 W/m² -
1788045818 30.56° C 69% 1017.7 hPa 0 mm - 26 W/m² -
1788045514 30.56° C 65% 1017.6 hPa 0 mm - 50 W/m² -
1788045210 30° C 72% 1017.8 hPa 0 mm - 54 W/m² -
1788044905 30° C 68% 1017.8 hPa 0 mm - 45 W/m² -
1788044604 30.56° C 66% 1017.6 hPa 0 mm - 43 W/m² -
1788044303 30.56° C 67% 1017.7 hPa 0 mm - 42 W/m² -

* Rain latest hour (hover to see other rain measurements)
** Current wind speed in m/s (hover to see current wind gust speed)